Погода Баево

Погода Баево : погода сейчас, прогноз погоды и архив. Всё, что Вы хотите узнать о погоде Баево!

Поиск расширенной информации на нашем сайте:

Другие новости

Новости СМИ2

Главная страница сайта

Новости сайта

03.07.2017

Напоминаем, что на нашем специализированном сайте Метеоцентр.Азия вы можете получить высокодетализированные автоматические прогнозы погоды по пунктам России, СНГ и мира в авиационном формате (включающие направление и скорость ветра, видимость, явления погоды, количество и форму облачности, нижнюю и верхнюю границу облачности).


Погода Баево - сегодня

Время (UTC), дата Ветер
(°,м/с) 
Видим.   Явления Облачность Т
(°С)
Тd
(°С)
f(%) Тe
(°С)
Pmin
(гПа)
dP
(гПа)
Po
(мм)
O2
(г/м3)
Тmin Tmax R s Состояние
почвы
00 21.04.18 200 (Ю) 20000 м    10/5 1000 м средняя 
[Sc|Ac trans]
+6.8 -2.3 52 +5  1015  -0.2  750  295  +6.7         
03 21.04.18 190 (Ю) 10 км    10/4 1000 м средняя 
[Sc|As op]
+9.1 -0.6 51 +8  1015.4  0.5  750  293           
06 21.04.18 200 (Ю) 5{10}  10 км    10/8 1000 м средняя 
[Sc|As trans]
+13.7 +0.8 41 +13  1014.8  -0.4  750  288           
12 21.04.18 220 (ЮЗ) 3{14}  10 км    10/6 600 м кучево-дожд., средняя, верхняя 
[Cb cap|As trans|Ci fib]
+15.8 +1.2 37 +16  1012.3  -0.9  748  285    +18.1       
15 21.04.18 170 (Ю) 10 км    10/4 600 м кучево-дожд., средняя 
[Cb cap|As trans]
+13.6 +0.8 42 +13  1011.8  -0.6  748  287           
18 21.04.18 160 (Ю) 10 км    ясно 
+10 -0.6 48 +9  1010.6  -1.4  747  290           
21 21.04.18 180 (Ю) 10 км    ясно 
+9.5 -2.1 44 +8  1008.7  -1.9  746  291           
00 22.04.18 190 (Ю) 10 км    10/0 средняя, верхняя 
[As trans|Ci fib]
+8.7 -2.2 46 +8  1008.1  -0.7  745  291  +8.7         
06 22.04.18 200 (Ю) 5{12}  10 км    10/10 600 м кучево-дожд. 
[Cb cap]
+14.5 +0.9 40 +14  1008.2  0.5  745  285           
12 22.04.18 240 (ЮЗ) 4{10}  10 км  слаб. ливневой дождь  10/10 600 м кучево-дожд. 
[Cb cap]
+12.9 +8.3 74 +12  1011.6  1.8  748  286    +16.7  0.0     
15 22.04.18 190 (Ю) 10 км  слаб. ливневой дождь  10/10 600 м кучево-дожд. 
[Cb cap]
+10.3 +8.9 91 +10  1012.8  1.1  749  289           
18 22.04.18 130 (ЮВ) 10 км  слаб. ливневой дождь  10/10 600 м кучево-дожд. 
[Cb cap]
+9.7 +8.4 92 +9  1012.9  -0.8  748  290           
21 22.04.18 140 (ЮВ) 10 км  слаб. ливневой дождь  10/10 600 м кучево-дожд. 
[Cb cap]
+9.7 +8.1 90 +11  1011.7  -0.3  748  290           
00 23.04.18 090 (В) 4000 м  ливневой дождь  10/10 600 м кучево-дожд. 
[Cb cap]
+9.3 +8.2 93 +9  1010.8  -0.9  747  290  +8.7       
03 23.04.18 110 (В) 4000 м  слаб. ливневой дождь  10/10 600 м кучево-дожд. 
[Cb cap]
+10.4 +8.4 87 +12  1008.4  -2.3  745  288           
06 23.04.18 230 (ЮЗ) 10 км  в посл. час ливневой дождь  10/8 600 м кучево-дожд., средняя 
[Cb cap|Ac trans]
+15.3 +8.4 63 +15  1007.1  -1  745  283           
12 23.04.18 230 (ЮЗ) 5{12}  10 км  {ливн. осадки}  10/6 1000 м средняя 
[Cu Sc|Ac trans]
+12.1 +10.3 89 +13  1009.8  1.7  746  286    +15.7     
15 23.04.18 250 (З) 10 км    3/3 1000 м 
[Sc]
+10.5 +9 90 +10  1012.3  2.5  748  289           
18 23.04.18 300 (СЗ) 10 км    10/5 600 м кучево-дожд., средняя, верхняя 
[Cb cap|Ac lent|Ci fib]
+6.3 +5.1 92 +6  1014.8  2.1  750  295           
21 23.04.18 360 (С) 0500 м  туман  10/10 600 м кучево-дожд. 
[Cb cap]
+5.1 +4.1 93 +6  1016.5  1.7  751  296           
00 24.04.18 120 (ЮВ) 0500 м  туман  10/10 1000 м 
[Sc]
+4.2 +3.4 95 +4  1017.6  752  298  +4.2         
06 24.04.18 150 (ЮВ) 10 км  {туман}  10/10 600 м кучево-дожд. 
[Cb cap]
+11.5 +9.7 89 +11  1015.9  -1.4  751  289           
09 24.04.18 130 (ЮВ) 10 км    10/4 1000 м средняя, верхняя 
[Sc|Ac trans|Cs]
+15.1 +10 72 +16  1013.6  -2.1  749  284           
12 24.04.18 140 (ЮВ) 10 км    10/3 1000 м средняя 
[Sc|Ac trans]
+15.8 +8.3 61 +16  1010.6  -3  747  283    +16.2       
15 24.04.18 110 (В) 10 км    10/5 1000 м средняя 
[Sc|Ac trans]
+14.1 +6.7 61 +15  1008.2  -2.5  745  284           
Время (UTC), дата Ветер
(°,м/с) 
Видим.   Явления Облачность Т
(°С)
Тd
(°С)
f(%) Тe
(°С)
Pmin
(гПа)
dP
(гПа)
Po
(мм)
O2
(г/м3)
Тmin Tmax R s Состояние
почвы

Для получения пояснительной информации подведите курсор к названию столбца.

ПОГОДА Баево - архив

Всё, что Вы хотите узнать о погоде Баево - удобно и подробно!

Выберите нужную дату (начиная с 1 января 2015* года) и нажмите кнопку "Найти".
Будут отображены архивные сводки погоды по пункту Баево, начиная с указанной даты.


Отображать данные в формате CSV (для использования в таблицах Excel)


Внимание! Наш архив погоды предназначен исключительно для личного некоммерческого использования в познавательных целях. Если Вам необходимы официальные справки о состоянии погоды (для производственных, юридических, коммерческих и т.п. целей), обращайтесь в органы Росгидромета.

*Примечание: данная дата относится к архиву по метеостанциям СССР (Россия, СНГ, Балтия).
Архив по метеостанциям Зарубежной Европы и Азии (кроме Китая) хранится 10 дней, по другим регионам земного шара (Китай, Африка, Америка, Австралия, Океания) - 1 день.

Баево - район местоположения метеостанции


Название, широта, долгота, высота метеостанции:
Баево 53.3°ш. 80.8°д. 122 м над ур. моря [Российская Федерация]

Дополнительная информация

В oтличие oт бoльшинства пoгoдных сайтoв мы публикуем пoдрoбную метеoинфoрмацию в детальнoм прoфессиoнальнoм фoрмате.

Характеристики температуры и влажнoсти вoздуха измеряются на высoте 2 м в тени вдали oт зданий и деревьев.
Скoрoсть ветра измеряется на высoте 10 м (на урoвне рoста челoвека скoрoсть ветра ниже в 1.5-2 раза). Если метеoстанция нахoдится в гoрoде или в лесу, тo скoрoсть ветра занижена на 2-4 м/с пo сравнению с oткрытым местoм. Скoрoсть ветра над акватoриями крупных рек и oзёр, а также на вершинах хoлмoв на 2-5 м/с выше, чем в oбычных услoвиях.
Атмoсфернoе давление в разных тoчках местнoсти мoжет значительнo oтличаться oт давления на метеoстанции, в зависимoсти oт услoвий рельефа (при пoдъёме на 10 м давление пoнижается примернo на 1 мм рт.ст.).